Zurück zum Katalog

FOSSASAT2E21

AktivKommunikationSSO
NORAD 64536·PAYLOAD·🇪🇸 Spain

Gestartet Jun 23, 2025 von Vandenberg Space Force Base

Loading…

Nächste Überflüge (nächste 24 Stunden)

TLE

AktuellSource: Space-Track

Epoche: Sep 14, 2026, 03:21 UTC

1 64536U 25135J   26257.14009103  .00002285  00000-0  10816-3 0  9996
2 64536  97.4720  10.5763 0003035 217.0258 143.0769 15.20366918 68334

Verfolge FOSSASAT2E21 in Echtzeit mit AllMySat

Download on the App Store